31.2°F
Current conditions from King Hill
Updated every 5 minutes
 
  Monday March 30, 2015

Station Historical Data
 
Daily Summary for March 30, 2015 Units:  English    Metric   Both
« Previous Day
Next Day »
Daily Weekly Monthly Yearly Custom
  Current: High: Low: Average:
Temperature: 31.2 °F 33.9 °F 30.5 °F 32.5 °F
Dew Point: 25.1 °F 25.1 °F 11.3 °F 14.9 °F
Humidity: 78% 78% 39% 49%
Wind Speed: 5.0mph 15.0mph 2.0mph 7mph
Wind Gust: 23.0mph 28.0mph - -
WindSSW - - SSW
Pressure: 29.61 in 29.91 in 29.61 in -
Precipitation: 0.00 in      
Historical Graphs
 
 
Tabular Data for March 30, 2015
Time Temperature Dew Point Pressure Wind Wind Speed Wind Gust Humidity Daily Rainfall
00:01 31.7 °F 13.3 °F 29.91 in SSW 5.0 mph 10.0 mph 46% 0.00 in
00:06 31.6 °F 13.7 °F 29.91 in SSW 2.0 mph 10.0 mph 47% 0.00 in
00:11 31.5 °F 13.6 °F 29.90 in SSW 4.0 mph 12.0 mph 47% 0.00 in
00:16 31.5 °F 13.1 °F 29.90 in SSW 3.0 mph 12.0 mph 46% 0.00 in
00:21 31.6 °F 12.7 °F 29.90 in SSW 7.0 mph 14.0 mph 45% 0.00 in
00:26 31.7 °F 12.8 °F 29.89 in SSW 6.0 mph 14.0 mph 45% 0.00 in
00:31 31.7 °F 12.3 °F 29.89 in SSW 7.0 mph 18.0 mph 44% 0.00 in
00:36 31.6 °F 12.2 °F 29.89 in SW 6.0 mph 18.0 mph 44% 0.00 in
00:41 31.6 °F 12.2 °F 29.89 in SSW 7.0 mph 14.0 mph 44% 0.00 in
00:46 31.5 °F 12.6 °F 29.88 in SSW 5.0 mph 16.0 mph 45% 0.00 in
00:51 31.5 °F 12.6 °F 29.88 in SSW 6.0 mph 19.0 mph 45% 0.00 in
00:56 31.5 °F 12.6 °F 29.87 in SSW 4.0 mph 19.0 mph 45% 0.00 in
01:01 31.5 °F 12.1 °F 29.86 in SSW 6.0 mph 12.0 mph 44% 0.00 in
01:06 31.7 °F 12.3 °F 29.86 in SSW 7.0 mph 13.0 mph 44% 0.00 in
01:11 31.9 °F 12.4 °F 29.86 in SSW 6.0 mph 16.0 mph 44% 0.00 in
01:16 32.1 °F 12.1 °F 29.85 in SSW 11.0 mph 22.0 mph 43% 0.00 in
01:21 32.3 °F 12.3 °F 29.85 in SSW 8.0 mph 22.0 mph 43% 0.00 in
01:26 32.3 °F 12.8 °F 29.85 in SSW 10.0 mph 18.0 mph 44% 0.00 in
01:31 32.3 °F 12.8 °F 29.85 in SSW 9.0 mph 20.0 mph 44% 0.00 in
01:36 32.4 °F 12.9 °F 29.84 in SSW 6.0 mph 20.0 mph 44% 0.00 in
01:41 32.3 °F 12.8 °F 29.84 in SSW 4.0 mph 16.0 mph 44% 0.00 in
01:46 32.5 °F 12.5 °F 29.84 in SW 5.0 mph 16.0 mph 43% 0.00 in
01:51 32.5 °F 11.9 °F 29.84 in SSW 5.0 mph 12.0 mph 42% 0.00 in
01:56 32.6 °F 13.1 °F 29.84 in SSW 5.0 mph 14.0 mph 44% 0.00 in
02:01 32.9 °F 12.3 °F 29.83 in SW 7.0 mph 20.0 mph 42% 0.00 in
02:06 33.1 °F 11.9 °F 29.83 in SSW 5.0 mph 20.0 mph 41% 0.00 in
02:11 33.2 °F 13.1 °F 29.83 in SSW 5.0 mph 20.0 mph 43% 0.00 in
02:16 33.2 °F 12.0 °F 29.83 in SSW 7.0 mph 18.0 mph 41% 0.00 in
02:21 33.3 °F 12.1 °F 29.83 in SSW 10.0 mph 20.0 mph 41% 0.00 in
02:26 33.5 °F 12.3 °F 29.83 in SSW 6.0 mph 20.0 mph 41% 0.00 in
02:31 33.6 °F 11.8 °F 29.82 in SSW 12.0 mph 20.0 mph 40% 0.00 in
02:36 33.5 °F 11.7 °F 29.82 in SSW 10.0 mph 23.0 mph 40% 0.00 in
02:41 33.5 °F 11.7 °F 29.81 in SSW 8.0 mph 23.0 mph 40% 0.00 in
02:46 33.6 °F 11.8 °F 29.81 in SSW 7.0 mph 20.0 mph 40% 0.00 in
02:51 33.6 °F 11.3 °F 29.80 in SSW 7.0 mph 19.0 mph 39% 0.00 in
02:56 33.7 °F 11.9 °F 29.80 in SSW 5.0 mph 19.0 mph 40% 0.00 in
03:01 33.6 °F 11.8 °F 29.80 in SW 7.0 mph 16.0 mph 40% 0.00 in
03:06 33.6 °F 11.3 °F 29.80 in SSW 5.0 mph 16.0 mph 39% 0.00 in
03:11 33.7 °F 11.9 °F 29.79 in SSW 7.0 mph 23.0 mph 40% 0.00 in
03:16 33.7 °F 11.9 °F 29.79 in SSW 7.0 mph 23.0 mph 40% 0.00 in
03:21 33.7 °F 11.9 °F 29.79 in SW 6.0 mph 16.0 mph 40% 0.00 in
03:26 33.7 °F 11.4 °F 29.79 in SSW 7.0 mph 16.0 mph 39% 0.00 in
03:31 33.9 °F 11.5 °F 29.78 in SSW 6.0 mph 16.0 mph 39% 0.00 in
03:36 33.9 °F 11.5 °F 29.78 in SSW 8.0 mph 19.0 mph 39% 0.00 in
03:41 33.8 °F 11.4 °F 29.78 in SSW 6.0 mph 19.0 mph 39% 0.00 in
03:46 33.7 °F 11.9 °F 29.77 in SSW 7.0 mph 18.0 mph 40% 0.00 in
03:51 33.7 °F 11.9 °F 29.77 in SSW 6.0 mph 23.0 mph 40% 0.00 in
03:56 33.6 °F 11.3 °F 29.77 in SSW 9.0 mph 23.0 mph 39% 0.00 in
04:01 33.5 °F 12.3 °F 29.77 in SSW 5.0 mph 20.0 mph 41% 0.00 in
04:06 33.5 °F 11.7 °F 29.76 in SSW 6.0 mph 16.0 mph 40% 0.00 in
04:11 33.5 °F 11.7 °F 29.76 in SSW 6.0 mph 23.0 mph 40% 0.00 in
04:16 33.5 °F 11.7 °F 29.75 in SSW 7.0 mph 23.0 mph 40% 0.00 in
04:21 33.5 °F 11.7 °F 29.75 in SW 8.0 mph 19.0 mph 40% 0.00 in
04:26 33.5 °F 11.7 °F 29.74 in SSW 7.0 mph 22.0 mph 40% 0.00 in
04:31 33.5 °F 12.3 °F 29.74 in SW 3.0 mph 23.0 mph 41% 0.00 in
04:36 33.5 °F 12.3 °F 29.74 in SSW 5.0 mph 23.0 mph 41% 0.00 in
04:41 33.4 °F 11.7 °F 29.74 in SSW 8.0 mph 16.0 mph 40% 0.00 in
04:46 33.4 °F 12.2 °F 29.74 in SSW 8.0 mph 16.0 mph 41% 0.00 in
04:51 33.4 °F 11.7 °F 29.74 in SW 6.0 mph 18.0 mph 40% 0.00 in
04:56 33.5 °F 12.3 °F 29.73 in SSW 7.0 mph 18.0 mph 41% 0.00 in
05:01 33.4 °F 11.7 °F 29.73 in SSW 9.0 mph 16.0 mph 40% 0.00 in
05:06 33.5 °F 11.7 °F 29.72 in SSW 7.0 mph 16.0 mph 40% 0.00 in
05:11 33.5 °F 12.3 °F 29.72 in SSW 5.0 mph 16.0 mph 41% 0.00 in
05:16 33.4 °F 12.2 °F 29.72 in SSW 6.0 mph 21.0 mph 41% 0.00 in
05:21 33.3 °F 12.1 °F 29.71 in SSW 5.0 mph 21.0 mph 41% 0.00 in
05:26 33.4 °F 12.2 °F 29.71 in SSW 6.0 mph 16.0 mph 41% 0.00 in
05:31 33.3 °F 12.7 °F 29.71 in SSW 8.0 mph 16.0 mph 42% 0.00 in
05:36 33.2 °F 13.1 °F 29.70 in SSW 4.0 mph 13.0 mph 43% 0.00 in
05:41 33.1 °F 12.5 °F 29.70 in SSW 5.0 mph 13.0 mph 42% 0.00 in
05:46 33.1 °F 12.5 °F 29.70 in SW 5.0 mph 19.0 mph 42% 0.00 in
05:51 33.1 °F 13.0 °F 29.69 in SW 3.0 mph 19.0 mph 43% 0.00 in
05:56 33.1 °F 13.0 °F 29.69 in SSW 3.0 mph 13.0 mph 43% 0.00 in
06:01 32.9 °F 13.4 °F 29.69 in SW 5.0 mph 13.0 mph 44% 0.00 in
06:06 32.9 °F 13.4 °F 29.69 in SW 6.0 mph 14.0 mph 44% 0.00 in
06:11 32.8 °F 13.8 °F 29.68 in SSW 5.0 mph 14.0 mph 45% 0.00 in
06:16 32.8 °F 13.3 °F 29.69 in SSW 7.0 mph 14.0 mph 44% 0.00 in
06:21 32.8 °F 14.3 °F 29.68 in SSW 11.0 mph 20.0 mph 46% 0.00 in
06:26 32.8 °F 15.3 °F 29.68 in SSW 8.0 mph 20.0 mph 48% 0.00 in
06:31 32.8 °F 15.7 °F 29.68 in SSW 7.0 mph 21.0 mph 49% 0.00 in
06:36 32.7 °F 15.6 °F 29.68 in South 9.0 mph 21.0 mph 49% 0.00 in
06:41 32.6 °F 16.5 °F 29.67 in South 10.0 mph 28.0 mph 51% 0.00 in
06:46 32.5 °F 16.8 °F 29.67 in SSW 15.0 mph 28.0 mph 52% 0.00 in
06:51 32.2 °F 17.4 °F 29.67 in SW 9.0 mph 26.0 mph 54% 0.00 in
06:56 32.1 °F 17.3 °F 29.67 in SSW 10.0 mph 20.0 mph 54% 0.00 in
07:01 32.0 °F 18.5 °F 29.67 in SSW 6.0 mph 20.0 mph 57% 0.00 in
07:06 31.8 °F 19.5 °F 29.67 in SSW 6.0 mph 22.0 mph 60% 0.00 in
07:11 31.5 °F 20.7 °F 29.66 in SSW 12.0 mph 26.0 mph 64% 0.00 in
07:16 31.3 °F 21.3 °F 29.66 in SW 6.0 mph 26.0 mph 66% 0.00 in
07:21 31.1 °F 21.4 °F 29.66 in SSW 7.0 mph 21.0 mph 67% 0.00 in
07:26 31.1 °F 21.8 °F 29.66 in SSW 7.0 mph 15.0 mph 68% 0.00 in
07:31 30.9 °F 21.9 °F 29.65 in SSW 7.0 mph 15.0 mph 69% 0.00 in
07:36 30.8 °F 22.5 °F 29.65 in SSW 8.0 mph 16.0 mph 71% 0.00 in
07:41 30.7 °F 22.7 °F 29.65 in SSW 9.0 mph 20.0 mph 72% 0.00 in
07:46 30.7 °F 23.1 °F 29.64 in SSW 9.0 mph 24.0 mph 73% 0.00 in
07:51 30.6 °F 23.3 °F 29.64 in SSW 12.0 mph 24.0 mph 74% 0.00 in
07:56 30.6 °F 23.6 °F 29.64 in SSW 10.0 mph 24.0 mph 75% 0.00 in
08:01 30.5 °F 23.5 °F 29.64 in SSW 10.0 mph 24.0 mph 75% 0.00 in
08:06 30.5 °F 23.8 °F 29.64 in SSW 9.0 mph 24.0 mph 76% 0.00 in
08:11 30.5 °F 23.8 °F 29.63 in SSW 10.0 mph 24.0 mph 76% 0.00 in
08:16 30.6 °F 24.3 °F 29.63 in SSW 6.0 mph 28.0 mph 77% 0.00 in
08:21 30.7 °F 24.3 °F 29.63 in SSW 8.0 mph 28.0 mph 77% 0.00 in
08:26 30.8 °F 24.4 °F 29.63 in SSW 9.0 mph 24.0 mph 77% 0.00 in
08:31 31.0 °F 24.6 °F 29.63 in SSW 8.0 mph 24.0 mph 77% 0.00 in
08:36 31.1 °F 24.7 °F 29.62 in SSW 12.0 mph 21.0 mph 77% 0.00 in
08:41 31.1 °F 24.7 °F 29.62 in SSW 7.0 mph 19.0 mph 77% 0.00 in
08:46 31.1 °F 24.7 °F 29.62 in SSW 8.0 mph 23.0 mph 77% 0.00 in
08:51 31.2 °F 25.1 °F 29.61 in SSW 5.0 mph 23.0 mph 78% 0.00 in
Westford Weather
Compliments of Weather Underground

 
 
Current Radar Loop:

Copyright © WestfordWeather.net 2007-2015. All rights reserved.